Regional Weather Roundup
Issued by NWS New Orleans/Baton Rouge, LA

Home | Current Version | Previous Version | Graphics & Text | Print | Product List | Glossary On
Versions: 1 2 3 4 5 6 7 8 9 10 11 12 13 14 15 16 17 18 19 20 21 22 23 24 25 26 27 28 29 30 31 32 33 34 35 36 37 38 39 40 41 42 43 44 45 46 47 48 49 50
367
ASUS44 KLIX 221201
RWRLIX
NEW ORLEANS REGIONAL WEATHER ROUNDUP
NATIONAL WEATHER SERVICE NEW ORLEANS LA
700 AM CDT TUE JUL 22 2014

NOTE: "FAIR" INDICATES FEW OR NO CLOUDS BELOW 12,000 FEET WITH NO
      SIGNIFICANT WEATHER AND/OR OBSTRUCTIONS TO VISIBILITY.
      SKY/WX - SKY CONDITION AND SIGNIFICANT WEATHER.
      TMP - AIR TEMPERATURE.     DP    - DEWPOINT TEMPERATURE.
      RH  - RELATIVE HUMIDITY.   PRES  - PRESSURE.
      HI  - HEAT INDEX.          WCI   - WIND CHILL INDEX.

*  THESE STATIONS ARE NOT NWS OR FAA STATIONS AND ARE NOT UNDER
   NWS QUALITY CONTROL.

LAZ038-040-048-061>063-065>067-069-221300-
SOUTHEAST LOUISIANA

CITY           SKY/WX    TMP DP  RH WIND       PRES   REMARKS
N.O. AUDUBON     N/A     79  76  90 MISG        N/A
6HR MIN TEMP:  78; 6HR MAX TEMP:  82;

N.O. INTL ARPT MOCLDY    77  73  87 CALM      30.02R
6HR MIN TEMP:  76; 6HR MAX TEMP:  80;

N.O. LAKEFRONT PTCLDY    79  74  84 S5        30.02S
6HR MIN TEMP:  78; 6HR MAX TEMP:  82;

N.O. DOWNTOWN*   N/A     81  72  74 CALM      30.02R
6HR MIN TEMP:  81; 6HR MAX TEMP:  84;

SLIDELL        PTCLDY    72  70  93 CALM      30.01S
6HR MIN TEMP:  72; 6HR MAX TEMP:  75;

BATON ROUGE    CLEAR     71  69  93 CALM      30.03R
6HR MIN TEMP:  71; 6HR MAX TEMP:  74;

BOOTHVILLE     CLEAR     78  77  96 CALM      30.02R FOG
6HR MIN TEMP:  77; 6HR MAX TEMP:  80;

BELLE CHASSE   MOCLDY    76  72  87 CALM      30.01S FOG
6HR MIN TEMP:  75; 6HR MAX TEMP:  79;

BOGALUSA*        N/A     72  68  89 CALM      30.04R
6HR MIN TEMP:  71; 6HR MAX TEMP:  74;

GALLIANO*      NOT AVBL
NEW ROADS*       N/A     70  69  98 CALM      30.03R FOG
6HR MIN TEMP:  69; 6HR MAX TEMP:  73; 6HR PCP:  0.01;

GONZALES*      PTSUNNY   73  73 100 CALM      30.02R
6HR MIN TEMP:  72; 6HR MAX TEMP:  76;

HAMMOND*       CLEAR     70  68  94 CALM      30.04S
HOUMA*         CLEAR     75  72  88 CALM      30.03R FOG
PORT FOURCHON* SUNNY     81  77  89 CALM      30.04R

$$

MSZ070-080>082-221300-
SOUTHERN MISSISSIPPI

CITY           SKY/WX    TMP DP  RH WIND       PRES   REMARKS
MCCOMB         CLEAR     72  69  90 N3        30.04R
6HR MIN TEMP:  70; 6HR MAX TEMP:  72;

GULFPORT       PTCLDY    77  71  82 CALM      30.02R
6HR MIN TEMP:  75; 6HR MAX TEMP:  78;

BILOXI         PTCLDY    76  71  84 CALM      30.02R
6HR MIN TEMP:  75; 6HR MAX TEMP:  79;

PASCAGOULA     MOCLDY    74  71  91 N3        30.02R
6HR MIN TEMP:  73; 6HR MAX TEMP:  76;

STENNIS ARPT*  CLEAR    N/A N/A N/A CALM      30.02

$$

COASTAL OBSERVATIONS
LAKE AND NEARSHORE STATIONS

STATION/POSITION TIME  TEMP    WIND        PRES    WAVE
                       AIR SEA DIR/SP/G            HT/PER
                 (UTC) (F)     (DEG/KT/KT) (MB)    (FT/S)
PASCAGOULA       1118   77     320/  5/  6 1015.4
WAVELAND YACHT   1118   76     290/  3/  5 1015.4
GRAND ISLE       1118   81 84  220/  2/  4 1016.8
SOUTHWEST PASS   1118   81 85  330/  3/  3 1016.6
NEW CANAL        1118   80 83  190/  2/  3 1016.7
SHELL BEACH      1118   82 81  260/  5/  7 1016.1

OFFSHORE STATIONS

STATION/POSITION TIME  TEMP    WIND        PRES    WAVE
                       AIR SEA DIR/SP/G            HT/PER
                 (UTC) (F)     (DEG/KT/KT) (MB)    (FT/S)
64 S DAUPHIN ISL 1128   82 82  280/  6/  6 1016.7

$$




USA.gov is the U.S. government's official web portal to all federal, state and local government web resources and services.